Wind_Speed
16 15 15 14 13 12 11 10 10 10 10 9 9 9 9 9 9 7 7 8 9 10 11 12 13 15 16 16 17 18 19 20 21 23 24 25 26 27 27 27 28 28
19 18 18 18 16 15 14 14 13 13 12 12 12 12 12 12 12 11 10 11 11 12 13 14 15 16 18 18 19 19 20 21 21 23 24 26 27 28 28 28 29 29
22 21 21 20 19 18 17 17 16 15 15 15 15 16 16 15 15 15 14 14 14 14 15 16 16 17 19 20 20 20 21 21 22 23 24 26 27 28 29 30 30 30
24 23 22 22 21 20 20 19 18 17 17 17 18 18 19 18 18 18 17 17 17 17 18 18 19 19 21 22 22 22 22 22 23 24 25 25 27 28 30 30 31 31
25 24 23 22 22 22 22 21 20 19 19 19 20 20 20 19 19 19 19 18 19 19 19 20 21 22 22 23 24 23 23 23 24 25 25 26 27 28 30 30 31 32
25 24 23 23 23 24 24 23 22 21 21 21 21 21 20 19 19 20 20 21 21 21 21 22 23 24 24 24 25 25 24 25 25 26 27 28 28 29 31 31 32 32
25 24 24 25 25 26 25 24 23 22 22 22 22 22 21 20 21 21 22 23 24 23 23 23 24 25 25 26 26 26 26 26 27 28 29 30 31 31 32 33 33 33
25 25 26 26 26 26 26 25 24 24 23 23 24 23 23 23 23 23 24 25 26 26 25 25 25 26 27 27 27 27 28 28 28 30 31 32 33 34 34 35 35 35
28 28 27 27 27 26 26 25 25 25 25 26 26 26 26 26 25 26 26 27 28 28 27 27 27 27 28 29 29 29 30 30 30 31 33 34 35 36 37 37 37 38
31 31 29 28 28 27 26 26 26 27 27 28 28 28 28 28 28 28 29 29 29 29 29 29 29 30 30 30 30 31 31 32 32 33 34 36 37 38 39 39 39 40
34 34 32 31 30 28 28 28 28 29 30 30 30 31 31 31 31 31 31 31 31 31 31 31 31 32 33 33 32 32 32 33 34 35 36 38 39 40 41 41 42 42
37 37 36 34 32 31 31 31 32 32 32 32 33 34 34 34 34 33 34 34 33 33 34 34 34 35 35 35 34 34 34 34 35 37 38 39 41 42 43 44 44 44
39 39 37 35 33 33 34 34 34 34 34 34 35 36 37 37 36 36 36 36 36 36 36 36 36 37 37 36 35 35 35 36 37 39 40 42 43 44 45 47 47 47
39 38 36 35 35 36 36 36 36 36 36 37 37 38 39 39 39 39 39 39 38 38 38 38 38 38 38 37 37 37 38 38 39 41 43 44 45 46 48 49 50 50
38 37 36 35 36 37 38 37 38 38 39 39 39 40 40 41 41 41 40 40 40 39 39 39 39 39 39 39 39 39 40 41 42 43 45 46 47 48 50 51 52 52
38 38 37 37 38 39 39 39 40 40 40 41 41 41 41 41 41 41 41 40 40 40 40 40 41 41 41 41 42 42 44 45 45 46 47 49 50 50 52 53 53 54
39 39 38 38 40 41 41 41 41 42 42 42 42 42 42 41 42 42 42 41 41 41 42 42 43 44 44 45 45 45 47 48 49 49 50 51 52 52 53 54 55 56
41 40 39 40 41 42 42 42 42 43 43 43 43 43 43 43 43 43 43 43 44 44 45 45 46 47 48 48 48 49 50 50 51 52 52 53 54 55 56 56 57 58
42 41 41 42 42 43 43 43 43 44 44 44 44 44 44 45 46 46 46 46 47 48 48 49 50 51 51 52 52 52 52 53 54 54 55 56 57 57 58 59 60 61
43 42 43 44 44 44 44 45 45 45 46 46 46 47 48 48 49 49 49 50 50 51 51 52 52 54 55 55 55 55 55 56 56 57 58 59 59 59 60 61 62 63
46 45 46 46 46 47 47 48 48 48 49 49 49 50 51 51 52 52 52 53 53 53 54 55 56 57 58 59 59 59 59 59 59 59 60 60 60 60 61 61 62 62
49 48 48 49 49 50 51 51 51 52 52 52 52 53 54 54 54 55 55 56 56 57 58 59 59 59 60 61 61 61 60 59 59 58 58 58 58 57 57 57 57 58
52 52 52 52 53 53 54 54 54 55 55 55 55 56 56 57 57 57 57 58 58 59 58 58 58 58 58 58 59 58 57 55 53 53 52 51 51 51 52 53 53 53
52 52 53 53 53 54 54 54 54 54 54 53 54 54 54 55 55 55 55 55 55 54 54 53 52 52 52 53 53 53 52 50 48 47 47 47 47 48 49 49 50 51
48 49 49 48 48 49 49 49 49 48 48 48 48 49 48 49 49 50 50 50 49 49 48 48 48 48 48 49 49 49 49 48 47 46 45 46 46 46 46 47 48 49
43 43 43 42 42 43 43 43 44 44 44 44 44 44 44 45 45 46 47 47 47 46 46 46 47 46 46 47 48 48 48 48 46 45 46 46 45 45 45 45 46 47
Wind_Direction
232 236 240 243 245 249 253 257 260 264 272 278 282 286 290 293 293 296 301 303 305 312 316 321 327 330 332 333 333 333 333 335 336 337 338 340 341 342 343 344 346 347
233 237 241 245 248 252 254 256 261 268 274 279 283 285 287 287 288 290 291 293 296 301 306 311 318 323 326 328 328 329 330 331 333 334 335 337 337 338 339 341 342 344
235 239 242 246 250 252 255 259 264 269 273 277 282 284 285 286 288 289 289 291 293 295 299 304 311 316 319 322 323 323 324 325 327 329 331 333 333 334 335 337 338 340
237 240 244 247 250 252 255 258 262 266 270 273 277 281 284 286 286 286 288 290 292 294 297 301 305 310 313 316 316 317 317 319 321 323 326 328 329 330 331 333 334 336
240 244 247 249 252 254 255 257 259 263 267 271 276 280 283 284 285 286 288 289 290 293 296 299 303 306 309 311 312 312 312 313 316 318 320 322 325 326 328 329 331 332
243 248 252 254 255 256 257 258 260 263 267 271 276 278 280 281 283 286 288 290 291 294 297 300 302 305 307 307 307 307 307 309 312 314 316 318 321 323 324 326 327 329
245 249 253 254 255 256 258 260 261 263 266 269 271 272 273 275 279 283 288 291 293 295 297 300 301 302 303 303 304 304 304 306 309 311 313 315 318 320 322 323 324 326
243 246 249 251 252 254 257 260 262 263 264 265 266 266 269 272 276 281 285 289 291 294 296 298 299 298 298 299 301 302 302 304 306 308 310 313 315 317 319 321 322 323
240 242 244 248 250 252 254 256 258 259 260 261 262 264 267 271 275 280 283 286 289 292 295 296 295 295 295 298 300 301 301 303 305 307 309 311 313 315 317 318 319 320
241 242 243 245 247 249 251 253 254 256 257 259 261 264 268 271 275 278 281 284 286 289 291 292 293 293 295 296 298 299 300 302 304 305 307 309 311 312 314 315 316 317
243 244 244 245 246 248 250 251 252 254 256 258 262 265 267 270 273 276 279 281 284 286 288 290 292 294 295 295 296 298 299 301 302 304 305 307 308 310 311 313 313 314
243 245 246 245 246 247 248 250 251 252 254 258 261 265 267 270 272 275 278 281 282 284 287 289 291 293 293 294 295 296 298 299 300 302 303 304 306 307 308 309 310 311
243 244 245 246 247 248 249 249 251 253 255 258 261 264 268 270 273 275 278 280 282 284 286 288 290 291 292 293 294 295 296 297 298 300 301 302 303 305 306 307 308 309
245 246 247 249 250 251 252 253 255 257 259 261 263 266 269 272 274 277 279 281 283 285 286 288 289 289 290 292 293 295 295 296 297 297 299 300 302 303 304 305 306 307
249 250 251 253 254 256 257 259 260 262 263 265 267 269 272 274 276 278 280 282 283 285 286 287 288 288 289 291 292 293 294 294 295 296 297 298 300 301 302 303 303 304
252 252 253 254 256 258 259 261 262 264 265 267 269 270 272 274 276 278 279 281 282 283 284 285 286 287 288 289 291 291 292 293 294 294 295 296 298 299 299 300 301 302
252 253 254 254 255 257 259 260 262 263 265 266 267 269 271 273 274 275 277 279 280 281 283 284 284 285 287 288 289 289 290 291 292 293 294 295 296 296 297 298 299 300
251 252 253 254 254 256 257 258 260 261 263 264 266 269 271 272 273 274 276 278 279 280 281 282 283 284 285 286 287 288 289 290 291 292 293 293 294 294 295 297 298 299
251 252 253 254 255 255 257 258 260 261 263 265 267 269 270 271 273 274 276 277 277 279 280 281 283 284 284 285 286 287 288 289 290 291 291 292 292 293 295 296 296 297
253 254 254 256 257 258 260 261 262 264 265 267 268 269 270 272 273 274 275 276 277 279 280 280 281 282 283 284 285 286 287 288 289 290 290 290 291 292 293 293 294 295
256 257 258 260 261 263 264 264 265 266 267 268 268 269 270 272 273 274 275 276 277 278 279 279 280 281 283 284 284 285 286 287 287 288 288 289 290 290 291 292 293 294
259 260 261 262 263 263 264 265 265 266 267 268 269 270 271 272 273 274 275 276 276 277 278 280 281 282 282 283 283 284 285 286 287 287 288 289 290 291 292 293 294 295
260 261 262 262 262 263 263 264 265 265 267 268 269 270 271 272 273 274 275 276 277 278 279 280 281 282 282 283 283 284 285 286 287 288 289 289 291 292 293 294 295 296
259 260 260 261 262 263 264 265 265 266 267 268 269 270 271 273 274 275 275 276 278 279 280 281 281 282 282 283 284 285 286 287 288 288 289 289 291 292 293 295 296 296
257 258 259 261 262 263 264 265 266 267 268 268 269 270 272 274 275 276 277 278 279 280 281 281 282 283 285 286 287 288 289 289 290 290 289 289 290 291 292 293 294 295
256 257 258 260 261 263 264 265 266 267 268 269 271 272 273 274 275 277 278 280 281 281 282 283 284 285 286 288 289 290 291 292 292 292 291 289 289 290 290 291 292 294
Height
10993 10993 10994 10994 10995 10996 10997 10997 10998 10999 10999 11000 11001 11001 11001 11002 11002 11002 11002 11002 11002 11002 11002 11001 11001 11000 11000 10999 10998 10997 10996 10995 10994 10992 10991 10990 10989 10988 10987 10986 10985 10983
10991 10992 10993 10993 10994 10995 10996 10996 10997 10998 10998 10999 10999 11000 11000 11000 11001 11001 11001 11001 11001 11001 11000 11000 11000 10999 10999 10998 10997 10996 10995 10994 10993 10992 10990 10989 10988 10986 10985 10984 10983 10982
10989 10990 10991 10992 10993 10994 10995 10995 10996 10997 10997 10998 10998 10998 10998 10999 10999 10999 10999 11000 11000 10999 10999 10999 10999 10998 10998 10997 10997 10996 10994 10993 10992 10991 10989 10988 10986 10985 10983 10982 10981 10980
10987 10989 10990 10991 10992 10993 10993 10994 10995 10995 10996 10996 10996 10996 10996 10997 10997 10997 10997 10998 10998 10998 10998 10997 10997 10997 10996 10996 10995 10994 10993 10992 10991 10990 10988 10987 10985 10984 10982 10980 10979 10978
10985 10986 10988 10989 10990 10991 10991 10992 10993 10993 10994 10994 10994 10994 10994 10994 10995 10995 10995 10995 10996 10996 10996 10995 10995 10995 10994 10994 10993 10992 10991 10990 10989 10988 10987 10985 10984 10982 10981 10979 10978 10977
10983 10984 10985 10987 10987 10988 10988 10989 10991 10991 10991 10992 10992 10992 10992 10992 10992 10992 10992 10993 10993 10993 10994 10993 10993 10992 10992 10991 10991 10990 10989 10988 10987 10986 10985 10983 10982 10981 10979 10978 10976 10975
10980 10981 10983 10984 10984 10985 10986 10987 10988 10989 10989 10989 10989 10989 10989 10989 10989 10990 10990 10990 10990 10990 10991 10991 10990 10990 10989 10988 10988 10987 10986 10986 10985 10983 10982 10981 10980 10978 10977 10975 10974 10973
10977 10978 10979 10980 10981 10982 10983 10984 10985 10986 10986 10986 10986 10986 10986 10986 10987 10987 10987 10987 10987 10987 10988 10988 10988 10987 10986 10985 10985 10984 10983 10983 10982 10980 10979 10978 10977 10976 10974 10973 10971 10969
10973 10974 10975 10977 10978 10979 10980 10982 10982 10983 10983 10983 10983 10983 10983 10983 10984 10984 10984 10985 10984 10984 10985 10985 10984 10984 10983 10982 10982 10982 10980 10979 10979 10978 10976 10975 10973 10972 10971 10969 10968 10966
10969 10970 10971 10973 10974 10975 10977 10978 10979 10979 10979 10979 10979 10980 10980 10980 10981 10981 10981 10982 10982 10981 10981 10981 10981 10980 10980 10980 10979 10978 10977 10976 10975 10974 10973 10971 10970 10968 10967 10966 10964 10962
10966 10967 10968 10969 10970 10972 10974 10975 10975 10975 10976 10976 10976 10976 10976 10976 10977 10977 10978 10978 10978 10978 10978 10978 10978 10977 10977 10976 10976 10975 10974 10973 10972 10971 10969 10968 10966 10964 10963 10962 10960 10959
10962 10963 10964 10966 10968 10969 10970 10971 10971 10971 10972 10972 10973 10972 10972 10973 10973 10974 10974 10974 10975 10975 10975 10974 10974 10974 10973 10972 10972 10972 10971 10970 10968 10967 10966 10964 10962 10960 10959 10957 10956 10955
10959 10960 10962 10964 10966 10966 10967 10967 10968 10968 10969 10969 10969 10969 10969 10969 10970 10970 10971 10971 10972 10972 10971 10971 10971 10970 10969 10969 10968 10968 10967 10966 10965 10963 10961 10960 10958 10957 10955 10953 10951 10950
10955 10958 10960 10962 10963 10963 10963 10964 10965 10965 10966 10966 10966 10966 10966 10966 10967 10967 10968 10968 10968 10968 10968 10968 10967 10966 10965 10965 10965 10964 10963 10962 10961 10959 10957 10956 10954 10953 10951 10948 10946 10945
10952 10955 10957 10959 10959 10959 10959 10961 10961 10962 10962 10963 10963 10963 10963 10963 10964 10964 10964 10964 10964 10965 10964 10963 10962 10961 10961 10961 10960 10960 10958 10957 10956 10955 10953 10952 10950 10948 10946 10944 10942 10940
10949 10951 10953 10954 10954 10954 10955 10956 10957 10958 10958 10959 10959 10959 10960 10960 10960 10960 10960 10960 10960 10960 10960 10959 10958 10957 10957 10956 10956 10955 10953 10952 10951 10950 10949 10947 10946 10944 10942 10940 10938 10936
10944 10946 10948 10950 10950 10950 10951 10952 10953 10953 10954 10954 10955 10955 10956 10957 10956 10956 10956 10956 10956 10956 10955 10954 10953 10952 10952 10952 10951 10950 10949 10947 10946 10945 10944 10942 10940 10939 10937 10935 10934 10932
10940 10942 10944 10944 10945 10946 10947 10948 10949 10949 10949 10950 10951 10952 10952 10952 10951 10951 10952 10952 10952 10951 10951 10950 10948 10947 10947 10946 10946 10945 10944 10942 10941 10940 10938 10936 10935 10933 10932 10931 10929 10927
10935 10938 10939 10939 10940 10941 10942 10944 10944 10945 10945 10946 10947 10947 10947 10947 10947 10947 10947 10947 10946 10946 10945 10944 10943 10942 10941 10940 10940 10939 10939 10938 10936 10934 10932 10930 10929 10927 10926 10925 10923 10921
10931 10933 10934 10934 10935 10937 10938 10939 10940 10940 10941 10941 10942 10942 10942 10941 10941 10941 10942 10941 10941 10940 10940 10939 10937 10936 10934 10934 10933 10933 10933 10932 10930 10928 10925 10924 10922 10921 10920 10918 10916 10914
10926 10928 10929 10930 10931 10932 10933 10933 10934 10935 10935 10936 10936 10936 10936 10936 10936 10936 10936 10935 10935 10934 10933 10932 10932 10930 10929 10928 10927 10926 10926 10925 10924 10922 10919 10917 10915 10914 10913 10911 10909 10906
10921 10923 10924 10925 10926 10926 10927 10927 10928 10928 10929 10929 10930 10930 10930 10930 10930 10930 10930 10929 10929 10928 10927 10926 10925 10925 10923 10921 10919 10919 10919 10919 10917 10916 10913 10910 10908 10907 10906 10904 10902 10900
10916 10917 10918 10918 10919 10919 10920 10920 10921 10922 10923 10924 10924 10924 10924 10923 10923 10923 10923 10923 10922 10922 10921 10920 10919 10917 10916 10913 10912 10912 10912 10913 10912 10910 10908 10905 10902 10901 10900 10898 10896 10894
10910 10911 10911 10911 10912 10913 10913 10914 10915 10916 10917 10918 10917 10917 10917 10917 10917 10916 10916 10916 10915 10915 10914 10913 10912 10910 10909 10907 10906 10905 10905 10906 10906 10905 10903 10900 10897 10897 10895 10892 10890 10887
10904 10904 10905 10906 10906 10906 10907 10908 10909 10910 10910 10911 10911 10911 10911 10911 10910 10909 10909 10909 10909 10908 10908 10906 10905 10904 10903 10901 10899 10898 10898 10898 10899 10898 10896 10894 10893 10892 10890 10888 10885 10881
10898 10899 10900 10901 10901 10901 10901 10902 10902 10903 10904 10905 10905 10905 10906 10905 10905 10904 10903 10902 10902 10902 10901 10900 10899 10899 10898 10896 10893 10892 10891 10891 10892 10890 10888 10887 10887 10886 10884 10882 10879 10877